Terug naar catalogus

IRIDIUM 33 DEB

ActiefPO
NORAD 35918·DEBRIS·🇺🇸 United States

Gelanceerd Sep 14, 1997 vanaf Baikonur Cosmodrome

Loading…

Volgende Passages (komende 24 uur)

TLE

VersSource: Space-Track

Epoch: Sep 13, 2026, 22:22 UTC

1 35918U 97051UB  26256.93211713  .00002134  00000-0  50854-3 0  9991
2 35918  86.4023 317.5135 0023688 332.2023 202.9719 14.53184625892017

Volg IRIDIUM 33 DEB in realtime met AllMySat

Download on the App Store